Location: The Saddle
(36.8333°N, 80.3417°W)
Time: 08:50:33
(UTC-04:00)

Vanguard 2 Rocket - Pass Details

Date: 04 February 2023
Orbit: 555 x 3316 km, 32.9° (Epoch: 27 March)

Event Time Altitude Azimuth Distance (km) Brightness Sun altitude
Rises 08:32:43 0° 221° (SW) 4,697 10.5 12.1°
Reaches altitude 10° 08:37:13 10° 207° (SSW) 3,197 9.8 12.9°
Maximum altitude 08:42:31 21° 162° (SSE) 1,935 9.6 13.8°
Drops below altitude 10° 08:46:23 10° 112° (ESE) 2,240 11.2 14.4°
Sets 08:48:54 0° 95° (E) 2,960 10.7 14.8°
